SDA_1681 (65991 NORAD) Tracking and Keplerian Element Data

This shows tracking and keplerian element data for the satellite.

Feedback or suggestion? Click here.




ElementValue
Catalog65991
NameSDA_1681
Epoch Orbit903
Epoch Day354.15523536
Epoch Year2025
RAAN17.6946
Inclination81.3008
Eccentricity0.000356
Argument of Perigee344.874
Mean Anonmoly15.231
Mean Motion13.85275561
Decay Rate1.8E-06
L11 65991U 25230T 25354.15523536 .00000180 00000+0 14777-3 0 9998
L22 65991 81.3008 17.6946 0003560 344.8740 15.2310 13.85275561 9036



Live tracking and technical data element details for SDA_1681 (NORAD 65991). SDA_1681 can be tracked NOW for your location showing map with azimuth and elevation plus other details from your city location.







IsCatalogInMostPopularTable: catalog: 65991, numindb: 5
Update: records affected: 1



GetName: 65991 SDA_1681

Hit Count: updated at: Tue, 21 Apr 2026 20:35:35 GMT